owner,sensor,date,latitude,longitude,air_pressure(mBar),qcFlag 
TABS,ioos:station:TABS:X:1,2017-07-01T00:00:00Z,27.0660,-96.3383,1013.39,11111222 
TABS,ioos:station:TABS:X:1,2017-07-01T00:30:00Z,27.0660,-96.3383,1013.32,11111222 
TABS,ioos:station:TABS:X:1,2017-07-01T01:00:00Z,27.0660,-96.3383,1013.53,11111222 
TABS,ioos:station:TABS:X:1,2017-07-01T01:30:00Z,27.0660,-96.3383,1013.4,11111222 
TABS,ioos:station:TABS:X:1,2017-07-01T02:00:00Z,27.0660,-96.3383,1013.9,11111222 
TABS,ioos:station:TABS:X:1,2017-07-01T02:30:00Z,27.0660,-96.3383,1014.06,11111222 
TABS,ioos:station:TABS:X:1,2017-07-01T03:00:00Z,27.0660,-96.3383,1014.13,11111222 
TABS,ioos:station:TABS:X:1,2017-07-01T03:30:00Z,27.0660,-96.3383,1014.53,11111222 
TABS,ioos:station:TABS:X:1,2017-07-01T04:00:00Z,27.0660,-96.3383,1014.48,11111222 
TABS,ioos:station:TABS:X:1,2017-07-01T04:30:00Z,27.0660,-96.3383,1014.39,11111222 
TABS,ioos:station:TABS:X:1,2017-07-01T05:00:00Z,27.0660,-96.3383,1014.78,11111222 
TABS,ioos:station:TABS:X:1,2017-07-01T05:30:00Z,27.0660,-96.3383,1014.86,11111222 
TABS,ioos:station:TABS:X:1,2017-07-01T06:00:00Z,27.0660,-96.3383,1014.93,11111222 
TABS,ioos:station:TABS:X:1,2017-07-01T06:30:00Z,27.0660,-96.3383,1015.07,11111222 
TABS,ioos:station:TABS:X:1,2017-07-01T07:00:00Z,27.0660,-96.3383,1014.5,11111222 
TABS,ioos:station:TABS:X:1,2017-07-01T07:30:00Z,27.0660,-96.3383,1014.46,11111222 
TABS,ioos:station:TABS:X:1,2017-07-01T08:00:00Z,27.0660,-96.3383,1014.22,11111222 
TABS,ioos:station:TABS:X:1,2017-07-01T08:30:00Z,27.0660,-96.3383,1014.38,11111222 
TABS,ioos:station:TABS:X:1,2017-07-01T09:00:00Z,27.0660,-96.3383,1014.32,11111222 
TABS,ioos:station:TABS:X:1,2017-07-01T09:30:00Z,27.0660,-96.3383,1014.62,11111222 
TABS,ioos:station:TABS:X:1,2017-07-01T10:00:00Z,27.0660,-96.3383,1014.81,11111222 
TABS,ioos:station:TABS:X:1,2017-07-01T10:30:00Z,27.0660,-96.3383,1014.9,11111222 
TABS,ioos:station:TABS:X:1,2017-07-01T11:00:00Z,27.0660,-96.3383,1015.36,11111222 
TABS,ioos:station:TABS:X:1,2017-07-01T11:30:00Z,27.0660,-96.3383,1016.03,11111222 
TABS,ioos:station:TABS:X:1,2017-07-01T12:00:00Z,27.0660,-96.3383,1016.12,11111222 
TABS,ioos:station:TABS:X:1,2017-07-01T12:30:00Z,27.0660,-96.3383,1016.62,11111222 
TABS,ioos:station:TABS:X:1,2017-07-01T13:00:00Z,27.0660,-96.3383,1017.08,11111222 
TABS,ioos:station:TABS:X:1,2017-07-01T13:30:00Z,27.0660,-96.3383,1017.18,11111222 
TABS,ioos:station:TABS:X:1,2017-07-01T14:00:00Z,27.0660,-96.3383,1017.32,11111222 
TABS,ioos:station:TABS:X:1,2017-07-01T14:30:00Z,27.0660,-96.3383,1017.44,11111222 
TABS,ioos:station:TABS:X:1,2017-07-01T15:00:00Z,27.0660,-96.3383,1018.05,11111222 
TABS,ioos:station:TABS:X:1,2017-07-01T15:30:00Z,27.0660,-96.3383,1018.58,11111222 
TABS,ioos:station:TABS:X:1,2017-07-01T16:00:00Z,27.0660,-96.3383,1018.59,11111222 
TABS,ioos:station:TABS:X:1,2017-07-01T16:30:00Z,27.0660,-96.3383,1018.84,11111222 
TABS,ioos:station:TABS:X:1,2017-07-01T17:00:00Z,27.0660,-96.3383,1019.05,11111222 
TABS,ioos:station:TABS:X:1,2017-07-01T17:30:00Z,27.0660,-96.3383,1019.06,11111222 
TABS,ioos:station:TABS:X:1,2017-07-01T18:00:00Z,27.0660,-96.3383,1018.81,11111222 
TABS,ioos:station:TABS:X:1,2017-07-01T18:30:00Z,27.0660,-96.3383,1018.54,11111222 
TABS,ioos:station:TABS:X:1,2017-07-01T19:00:00Z,27.0660,-96.3383,1018.12,11111222 
TABS,ioos:station:TABS:X:1,2017-07-01T19:30:00Z,27.0660,-96.3383,1017.65,11111222 
TABS,ioos:station:TABS:X:1,2017-07-01T20:00:00Z,27.0660,-96.3383,1017.63,11111222 
TABS,ioos:station:TABS:X:1,2017-07-01T20:30:00Z,27.0660,-96.3383,1017.72,11111222 
TABS,ioos:station:TABS:X:1,2017-07-01T21:00:00Z,27.0660,-96.3383,1017.3,11111222 
TABS,ioos:station:TABS:X:1,2017-07-01T21:30:00Z,27.0660,-96.3383,1017.01,11111222 
TABS,ioos:station:TABS:X:1,2017-07-01T22:00:00Z,27.0660,-96.3383,1016.73,11111222 
TABS,ioos:station:TABS:X:1,2017-07-01T22:30:00Z,27.0660,-96.3383,1016.92,11111222 
TABS,ioos:station:TABS:X:1,2017-07-01T23:00:00Z,27.0660,-96.3383,1017.05,11111222 
TABS,ioos:station:TABS:X:1,2017-07-01T23:30:00Z,27.0660,-96.3383,1016.77,11111222 
TABS,ioos:station:TABS:X:1,2017-07-02T00:00:00Z,27.0660,-96.3383,1016.2,11111222 
TABS,ioos:station:TABS:X:1,2017-07-02T00:30:00Z,27.0660,-96.3383,1016.9,11111222 
TABS,ioos:station:TABS:X:1,2017-07-02T01:00:00Z,27.0660,-96.3383,1016.45,11111222 
TABS,ioos:station:TABS:X:1,2017-07-02T01:30:00Z,27.0660,-96.3383,1016.74,11111222 
TABS,ioos:station:TABS:X:1,2017-07-02T02:00:00Z,27.0660,-96.3383,1016.99,11111222 
TABS,ioos:station:TABS:X:1,2017-07-02T02:30:00Z,27.0660,-96.3383,1017.49,11111222 
TABS,ioos:station:TABS:X:1,2017-07-02T03:00:00Z,27.0660,-96.3383,1017.71,11111222 
TABS,ioos:station:TABS:X:1,2017-07-02T03:30:00Z,27.0660,-96.3383,1017.97,11111222 
TABS,ioos:station:TABS:X:1,2017-07-02T04:00:00Z,27.0660,-96.3383,1018.11,11111222 
TABS,ioos:station:TABS:X:1,2017-07-02T04:30:00Z,27.0660,-96.3383,1017.85,11111222 
TABS,ioos:station:TABS:X:1,2017-07-02T05:00:00Z,27.0660,-96.3383,1017.81,11111222 
TABS,ioos:station:TABS:X:1,2017-07-02T05:30:00Z,27.0660,-96.3383,1017.98,11111222 
TABS,ioos:station:TABS:X:1,2017-07-02T06:00:00Z,27.0660,-96.3383,1017.84,11111222 
TABS,ioos:station:TABS:X:1,2017-07-02T06:30:00Z,27.0660,-96.3383,1017.82,11111222 
TABS,ioos:station:TABS:X:1,2017-07-02T07:00:00Z,27.0660,-96.3383,1017.63,11111222 
TABS,ioos:station:TABS:X:1,2017-07-02T07:30:00Z,27.0660,-96.3383,1017.59,11111222 
TABS,ioos:station:TABS:X:1,2017-07-02T08:00:00Z,27.0660,-96.3383,1017.73,11111222 
TABS,ioos:station:TABS:X:1,2017-07-02T08:30:00Z,27.0660,-96.3383,1017.59,11111222 
TABS,ioos:station:TABS:X:1,2017-07-02T09:00:00Z,27.0660,-96.3383,1017.64,11111222 
TABS,ioos:station:TABS:X:1,2017-07-02T09:30:00Z,27.0660,-96.3383,1017.65,11111222 
TABS,ioos:station:TABS:X:1,2017-07-02T10:00:00Z,27.0660,-96.3383,1017.9,11111222 
TABS,ioos:station:TABS:X:1,2017-07-02T10:30:00Z,27.0660,-96.3383,1017.97,11111222 
TABS,ioos:station:TABS:X:1,2017-07-02T11:00:00Z,27.0660,-96.3383,1018.42,11111222 
TABS,ioos:station:TABS:X:1,2017-07-02T11:30:00Z,27.0660,-96.3383,1018.93,11111222 
TABS,ioos:station:TABS:X:1,2017-07-02T12:00:00Z,27.0660,-96.3383,1019.31,11111222 
TABS,ioos:station:TABS:X:1,2017-07-02T12:30:00Z,27.0660,-96.3383,1019.74,11111222 
TABS,ioos:station:TABS:X:1,2017-07-02T13:00:00Z,27.0660,-96.3383,1020.06,11111222 
TABS,ioos:station:TABS:X:1,2017-07-02T13:30:00Z,27.0660,-96.3383,1020.21,11111222 
TABS,ioos:station:TABS:X:1,2017-07-02T14:00:00Z,27.0660,-96.3383,1020.36,11111222 
TABS,ioos:station:TABS:X:1,2017-07-02T14:30:00Z,27.0660,-96.3383,1020.28,11111222 
TABS,ioos:station:TABS:X:1,2017-07-02T15:00:00Z,27.0660,-96.3383,1020.44,11111222 
TABS,ioos:station:TABS:X:1,2017-07-02T15:30:00Z,27.0660,-96.3383,1020.43,11111222 
TABS,ioos:station:TABS:X:1,2017-07-02T16:00:00Z,27.0660,-96.3383,1020.41,11111222 
TABS,ioos:station:TABS:X:1,2017-07-02T16:30:00Z,27.0660,-96.3383,1020.42,11111222 
TABS,ioos:station:TABS:X:1,2017-07-02T17:00:00Z,27.0660,-96.3383,1020.27,11111222 
TABS,ioos:station:TABS:X:1,2017-07-02T17:30:00Z,27.0660,-96.3383,1020.18,11111222 
TABS,ioos:station:TABS:X:1,2017-07-02T18:00:00Z,27.0660,-96.3383,1020.17,11111222 
TABS,ioos:station:TABS:X:1,2017-07-02T18:30:00Z,27.0660,-96.3383,1019.95,11111222 
TABS,ioos:station:TABS:X:1,2017-07-02T19:00:00Z,27.0660,-96.3383,1019.79,11111222 
TABS,ioos:station:TABS:X:1,2017-07-02T19:30:00Z,27.0660,-96.3383,1019.51,11111222 
TABS,ioos:station:TABS:X:1,2017-07-02T20:00:00Z,27.0660,-96.3383,1019.35,11111222 
TABS,ioos:station:TABS:X:1,2017-07-02T20:30:00Z,27.0660,-96.3383,1018.86,11111222 
TABS,ioos:station:TABS:X:1,2017-07-02T21:00:00Z,27.0660,-96.3383,1018.51,11111222 
TABS,ioos:station:TABS:X:1,2017-07-02T21:30:00Z,27.0660,-96.3383,1018.23,11111222 
TABS,ioos:station:TABS:X:1,2017-07-02T22:00:00Z,27.0660,-96.3383,1018.04,11111222 
TABS,ioos:station:TABS:X:1,2017-07-02T22:30:00Z,27.0660,-96.3383,1017.62,11111222 
TABS,ioos:station:TABS:X:1,2017-07-02T23:00:00Z,27.0660,-96.3383,1017.73,11111222 
TABS,ioos:station:TABS:X:1,2017-07-02T23:30:00Z,27.0660,-96.3383,1017.69,11111222 
TABS,ioos:station:TABS:X:1,2017-07-03T00:00:00Z,27.0660,-96.3383,1017.67,11111222 
TABS,ioos:station:TABS:X:1,2017-07-03T00:30:00Z,27.0660,-96.3383,1017.31,11111222 
TABS,ioos:station:TABS:X:1,2017-07-03T01:00:00Z,27.0660,-96.3383,1017.34,11111222 
TABS,ioos:station:TABS:X:1,2017-07-03T01:30:00Z,27.0660,-96.3383,1017.17,11111222 
TABS,ioos:station:TABS:X:1,2017-07-03T02:00:00Z,27.0660,-96.3383,1017.34,11111222 
TABS,ioos:station:TABS:X:1,2017-07-03T02:30:00Z,27.0660,-96.3383,1017.64,11111222 
TABS,ioos:station:TABS:X:1,2017-07-03T03:00:00Z,27.0660,-96.3383,1017.82,11111222 
TABS,ioos:station:TABS:X:1,2017-07-03T03:30:00Z,27.0660,-96.3383,1017.99,11111222 
TABS,ioos:station:TABS:X:1,2017-07-03T04:00:00Z,27.0660,-96.3383,1017.99,11111222 
TABS,ioos:station:TABS:X:1,2017-07-03T04:30:00Z,27.0660,-96.3383,1017.74,11111222 
TABS,ioos:station:TABS:X:1,2017-07-03T05:00:00Z,27.0660,-96.3383,1017.82,11111222 
TABS,ioos:station:TABS:X:1,2017-07-03T05:30:00Z,27.0660,-96.3383,1018.05,11111222 
TABS,ioos:station:TABS:X:1,2017-07-03T06:00:00Z,27.0660,-96.3383,1017.81,11111222 
TABS,ioos:station:TABS:X:1,2017-07-03T06:30:00Z,27.0660,-96.3383,1017.28,11111222 
TABS,ioos:station:TABS:X:1,2017-07-03T07:00:00Z,27.0660,-96.3383,1017.25,11111222 
TABS,ioos:station:TABS:X:1,2017-07-03T07:30:00Z,27.0660,-96.3383,1016.89,11111222 
TABS,ioos:station:TABS:X:1,2017-07-03T08:00:00Z,27.0660,-96.3383,1016.86,11111222 
TABS,ioos:station:TABS:X:1,2017-07-03T08:30:00Z,27.0660,-96.3383,1016.78,11111222 
TABS,ioos:station:TABS:X:1,2017-07-03T09:00:00Z,27.0660,-96.3383,1016.76,11111222 
TABS,ioos:station:TABS:X:1,2017-07-03T09:30:00Z,27.0660,-96.3383,1016.84,11111222 
TABS,ioos:station:TABS:X:1,2017-07-03T10:00:00Z,27.0660,-96.3383,1016.7,11111222 
TABS,ioos:station:TABS:X:1,2017-07-03T10:30:00Z,27.0660,-96.3383,1016.51,11111222 
TABS,ioos:station:TABS:X:1,2017-07-03T11:00:00Z,27.0660,-96.3383,1016.53,11111222 
TABS,ioos:station:TABS:X:1,2017-07-03T11:30:00Z,27.0660,-96.3383,1016.91,11111222 
TABS,ioos:station:TABS:X:1,2017-07-03T12:00:00Z,27.0660,-96.3383,1016.79,11111222 
TABS,ioos:station:TABS:X:1,2017-07-03T12:30:00Z,27.0660,-96.3383,1017.14,11111222 
TABS,ioos:station:TABS:X:1,2017-07-03T13:00:00Z,27.0660,-96.3383,1017.59,11111222 
TABS,ioos:station:TABS:X:1,2017-07-03T13:30:00Z,27.0660,-96.3383,1017.92,11111222 
TABS,ioos:station:TABS:X:1,2017-07-03T14:00:00Z,27.0660,-96.3383,1018.15,11111222 
TABS,ioos:station:TABS:X:1,2017-07-03T14:30:00Z,27.0660,-96.3383,1018.18,11111222 
TABS,ioos:station:TABS:X:1,2017-07-03T15:00:00Z,27.0660,-96.3383,1018.02,11111222 
TABS,ioos:station:TABS:X:1,2017-07-03T15:30:00Z,27.0660,-96.3383,1018.27,11111222 
TABS,ioos:station:TABS:X:1,2017-07-03T16:00:00Z,27.0660,-96.3383,1018.06,11111222 
TABS,ioos:station:TABS:X:1,2017-07-03T16:30:00Z,27.0660,-96.3383,1018.05,11111222 
TABS,ioos:station:TABS:X:1,2017-07-03T17:00:00Z,27.0660,-96.3383,1017.99,11111222 
TABS,ioos:station:TABS:X:1,2017-07-03T17:30:00Z,27.0660,-96.3383,1017.83,11111222 
TABS,ioos:station:TABS:X:1,2017-07-03T18:00:00Z,27.0660,-96.3383,1017.4,11111222 
TABS,ioos:station:TABS:X:1,2017-07-03T18:30:00Z,27.0660,-96.3383,1017.35,11111222 
TABS,ioos:station:TABS:X:1,2017-07-03T19:00:00Z,27.0660,-96.3383,1017.36,11111222 
TABS,ioos:station:TABS:X:1,2017-07-03T19:30:00Z,27.0660,-96.3383,1017.08,11111222 
TABS,ioos:station:TABS:X:1,2017-07-03T20:00:00Z,27.0660,-96.3383,1016.82,11111222 
TABS,ioos:station:TABS:X:1,2017-07-03T20:30:00Z,27.0660,-96.3383,1016.3,11111222 
TABS,ioos:station:TABS:X:1,2017-07-03T21:00:00Z,27.0660,-96.3383,1015.84,11111222 
TABS,ioos:station:TABS:X:1,2017-07-03T21:30:00Z,27.0660,-96.3383,1015.7,11111222 
TABS,ioos:station:TABS:X:1,2017-07-03T22:00:00Z,27.0660,-96.3383,1015.54,11111222 
TABS,ioos:station:TABS:X:1,2017-07-03T22:30:00Z,27.0660,-96.3383,1015.36,11111222 
TABS,ioos:station:TABS:X:1,2017-07-03T23:00:00Z,27.0660,-96.3383,1015.01,11111222 
TABS,ioos:station:TABS:X:1,2017-07-03T23:30:00Z,27.0660,-96.3383,1015.08,11111222 
TABS,ioos:station:TABS:X:1,2017-07-04T00:00:00Z,27.0660,-96.3383,1015.28,11111222 
TABS,ioos:station:TABS:X:1,2017-07-04T00:30:00Z,27.0660,-96.3383,1015.29,11111222 
TABS,ioos:station:TABS:X:1,2017-07-04T01:00:00Z,27.0660,-96.3383,1015.55,11111222 
TABS,ioos:station:TABS:X:1,2017-07-04T01:30:00Z,27.0660,-96.3383,1015.54,11111222 
TABS,ioos:station:TABS:X:1,2017-07-04T02:00:00Z,27.0660,-96.3383,1015.73,11111222 
TABS,ioos:station:TABS:X:1,2017-07-04T02:30:00Z,27.0660,-96.3383,1015.81,11111222 
TABS,ioos:station:TABS:X:1,2017-07-04T03:00:00Z,27.0660,-96.3383,1015.76,11111222 
TABS,ioos:station:TABS:X:1,2017-07-04T03:30:00Z,27.0660,-96.3383,1015.8,11111222 
TABS,ioos:station:TABS:X:1,2017-07-04T04:00:00Z,27.0660,-96.3383,1015.83,11111222 
TABS,ioos:station:TABS:X:1,2017-07-04T04:30:00Z,27.0660,-96.3383,1015.82,11111222 
TABS,ioos:station:TABS:X:1,2017-07-04T05:00:00Z,27.0660,-96.3383,1016.17,11111222 
TABS,ioos:station:TABS:X:1,2017-07-04T05:30:00Z,27.0660,-96.3383,1016.07,11111222 
TABS,ioos:station:TABS:X:1,2017-07-04T06:00:00Z,27.0660,-96.3383,1015.59,11111222 
TABS,ioos:station:TABS:X:1,2017-07-04T06:30:00Z,27.0660,-96.3383,1015.18,11111222 
TABS,ioos:station:TABS:X:1,2017-07-04T07:00:00Z,27.0660,-96.3383,1015.25,11111222 
TABS,ioos:station:TABS:X:1,2017-07-04T07:30:00Z,27.0660,-96.3383,1015.35,11111222 
TABS,ioos:station:TABS:X:1,2017-07-04T08:00:00Z,27.0660,-96.3383,1015.72,11111222 
TABS,ioos:station:TABS:X:1,2017-07-04T08:30:00Z,27.0660,-96.3383,1015.53,11111222 
TABS,ioos:station:TABS:X:1,2017-07-04T09:00:00Z,27.0660,-96.3383,1015.31,11111222 
TABS,ioos:station:TABS:X:1,2017-07-04T09:30:00Z,27.0660,-96.3383,1015.15,11111222 
TABS,ioos:station:TABS:X:1,2017-07-04T10:00:00Z,27.0660,-96.3383,1015.33,11111222 
TABS,ioos:station:TABS:X:1,2017-07-04T10:30:00Z,27.0660,-96.3383,1015.09,11111222 
TABS,ioos:station:TABS:X:1,2017-07-04T11:00:00Z,27.0660,-96.3383,1015.16,11111222 
TABS,ioos:station:TABS:X:1,2017-07-04T11:30:00Z,27.0660,-96.3383,1015.53,11111222 
TABS,ioos:station:TABS:X:1,2017-07-04T12:00:00Z,27.0660,-96.3383,1016.17,11111222 
TABS,ioos:station:TABS:X:1,2017-07-04T12:30:00Z,27.0660,-96.3383,1016.35,11111222 
TABS,ioos:station:TABS:X:1,2017-07-04T13:00:00Z,27.0660,-96.3383,1016.42,11111222 
TABS,ioos:station:TABS:X:1,2017-07-04T13:30:00Z,27.0660,-96.3383,1016.75,11111222 
TABS,ioos:station:TABS:X:1,2017-07-04T14:00:00Z,27.0660,-96.3383,1016.77,11111222 
TABS,ioos:station:TABS:X:1,2017-07-04T14:30:00Z,27.0660,-96.3383,1017.09,11111222 
TABS,ioos:station:TABS:X:1,2017-07-04T15:00:00Z,27.0660,-96.3383,1017.42,11111222 
TABS,ioos:station:TABS:X:1,2017-07-04T15:30:00Z,27.0660,-96.3383,1017.36,11111222 
TABS,ioos:station:TABS:X:1,2017-07-04T16:00:00Z,27.0660,-96.3383,1017.05,11111222 
TABS,ioos:station:TABS:X:1,2017-07-04T16:30:00Z,27.0660,-96.3383,1016.95,11111222 
TABS,ioos:station:TABS:X:1,2017-07-04T17:00:00Z,27.0660,-96.3383,1016.76,11111222 
TABS,ioos:station:TABS:X:1,2017-07-04T17:30:00Z,27.0660,-96.3383,1016.76,11111222 
TABS,ioos:station:TABS:X:1,2017-07-04T18:00:00Z,27.0660,-96.3383,1016.84,11111222 
TABS,ioos:station:TABS:X:1,2017-07-04T18:30:00Z,27.0660,-96.3383,1016.65,11111222 
TABS,ioos:station:TABS:X:1,2017-07-04T19:00:00Z,27.0660,-96.3383,1016.47,11111222 
TABS,ioos:station:TABS:X:1,2017-07-04T19:30:00Z,27.0660,-96.3383,1016.12,11111222 
TABS,ioos:station:TABS:X:1,2017-07-04T20:00:00Z,27.0660,-96.3383,1015.78,11111222 
TABS,ioos:station:TABS:X:1,2017-07-04T20:30:00Z,27.0660,-96.3383,1015.57,11111222 
TABS,ioos:station:TABS:X:1,2017-07-04T21:00:00Z,27.0660,-96.3383,1015.14,11111222 
TABS,ioos:station:TABS:X:1,2017-07-04T21:30:00Z,27.0660,-96.3383,1014.97,11111222 
TABS,ioos:station:TABS:X:1,2017-07-04T22:00:00Z,27.0660,-96.3383,1014.54,11111222 
TABS,ioos:station:TABS:X:1,2017-07-04T22:30:00Z,27.0660,-96.3383,1014.63,11111222 
TABS,ioos:station:TABS:X:1,2017-07-04T23:00:00Z,27.0660,-96.3383,1014.36,11111222 
TABS,ioos:station:TABS:X:1,2017-07-04T23:30:00Z,27.0660,-96.3383,1014.53,11111222 
TABS,ioos:station:TABS:X:1,2017-07-05T00:00:00Z,27.0660,-96.3383,1014.65,11111222 
TABS,ioos:station:TABS:X:1,2017-07-05T00:30:00Z,27.0660,-96.3383,1014.53,11111222 
TABS,ioos:station:TABS:X:1,2017-07-05T01:00:00Z,27.0660,-96.3383,1014.89,11111222 
TABS,ioos:station:TABS:X:1,2017-07-05T01:30:00Z,27.0660,-96.3383,1014.73,11111222 
TABS,ioos:station:TABS:X:1,2017-07-05T02:00:00Z,27.0660,-96.3383,1015.5,11111222 
TABS,ioos:station:TABS:X:1,2017-07-05T02:30:00Z,27.0660,-96.3383,1015.62,11111222 
TABS,ioos:station:TABS:X:1,2017-07-05T03:00:00Z,27.0660,-96.3383,1016.17,11111222 
TABS,ioos:station:TABS:X:1,2017-07-05T03:30:00Z,27.0660,-96.3383,1016.42,11111222 
TABS,ioos:station:TABS:X:1,2017-07-05T04:00:00Z,27.0660,-96.3383,1016.8,11111222 
TABS,ioos:station:TABS:X:1,2017-07-05T04:30:00Z,27.0660,-96.3383,1016.74,11111222 
TABS,ioos:station:TABS:X:1,2017-07-05T05:00:00Z,27.0660,-96.3383,1016.86,11111222 
TABS,ioos:station:TABS:X:1,2017-07-05T05:30:00Z,27.0660,-96.3383,1016.94,11111222 
TABS,ioos:station:TABS:X:1,2017-07-05T06:00:00Z,27.0660,-96.3383,1016.91,11111222 
TABS,ioos:station:TABS:X:1,2017-07-05T06:30:00Z,27.0660,-96.3383,1016.6,11111222 
TABS,ioos:station:TABS:X:1,2017-07-05T07:00:00Z,27.0660,-96.3383,1016.47,11111222 
TABS,ioos:station:TABS:X:1,2017-07-05T07:30:00Z,27.0660,-96.3383,1016.24,11111222 
TABS,ioos:station:TABS:X:1,2017-07-05T08:00:00Z,27.0660,-96.3383,1016.01,11111222 
TABS,ioos:station:TABS:X:1,2017-07-05T08:30:00Z,27.0660,-96.3383,1015.84,11111222 
TABS,ioos:station:TABS:X:1,2017-07-05T09:00:00Z,27.0660,-96.3383,1015.68,11111222 
TABS,ioos:station:TABS:X:1,2017-07-05T09:30:00Z,27.0660,-96.3383,1015.75,11111222 
TABS,ioos:station:TABS:X:1,2017-07-05T10:00:00Z,27.0660,-96.3383,1015.66,11111222 
TABS,ioos:station:TABS:X:1,2017-07-05T10:30:00Z,27.0660,-96.3383,1015.39,11111222 
TABS,ioos:station:TABS:X:1,2017-07-05T11:00:00Z,27.0660,-96.3383,1015.68,11111222 
TABS,ioos:station:TABS:X:1,2017-07-05T11:30:00Z,27.0660,-96.3383,1015.6,11111222 
TABS,ioos:station:TABS:X:1,2017-07-05T12:00:00Z,27.0660,-96.3383,1015.91,11111222 
TABS,ioos:station:TABS:X:1,2017-07-05T12:30:00Z,27.0660,-96.3383,1016.2,11111222 
TABS,ioos:station:TABS:X:1,2017-07-05T13:00:00Z,27.0660,-96.3383,1016.51,11111222 
TABS,ioos:station:TABS:X:1,2017-07-05T13:30:00Z,27.0660,-96.3383,1016.86,11111222 
TABS,ioos:station:TABS:X:1,2017-07-05T14:00:00Z,27.0660,-96.3383,1017.15,11111222 
TABS,ioos:station:TABS:X:1,2017-07-05T14:30:00Z,27.0660,-96.3383,1017.31,11111222 
TABS,ioos:station:TABS:X:1,2017-07-05T15:00:00Z,27.0660,-96.3383,1017.48,11111222 
TABS,ioos:station:TABS:X:1,2017-07-05T15:30:00Z,27.0660,-96.3383,1017.67,11111222 
TABS,ioos:station:TABS:X:1,2017-07-05T16:00:00Z,27.0660,-96.3383,1017.87,11111222 
TABS,ioos:station:TABS:X:1,2017-07-05T16:30:00Z,27.0660,-96.3383,1018.09,11111222 
TABS,ioos:station:TABS:X:1,2017-07-05T17:00:00Z,27.0660,-96.3383,1018.44,11111222 
TABS,ioos:station:TABS:X:1,2017-07-05T17:30:00Z,27.0660,-96.3383,1018.33,11111222 
TABS,ioos:station:TABS:X:1,2017-07-05T18:00:00Z,27.0660,-96.3383,1018.04,11111222 
TABS,ioos:station:TABS:X:1,2017-07-05T18:30:00Z,27.0660,-96.3383,1017.98,11111222 
TABS,ioos:station:TABS:X:1,2017-07-05T19:00:00Z,27.0660,-96.3383,1017.9,11111222 
TABS,ioos:station:TABS:X:1,2017-07-05T19:30:00Z,27.0660,-96.3383,1017.67,11111222 
TABS,ioos:station:TABS:X:1,2017-07-05T20:00:00Z,27.0660,-96.3383,1017.34,11111222 
TABS,ioos:station:TABS:X:1,2017-07-05T20:30:00Z,27.0660,-96.3383,1016.9,11111222 
TABS,ioos:station:TABS:X:1,2017-07-05T21:00:00Z,27.0660,-96.3383,1016.69,11111222 
TABS,ioos:station:TABS:X:1,2017-07-05T21:30:00Z,27.0660,-96.3383,1016.44,11111222 
TABS,ioos:station:TABS:X:1,2017-07-05T22:00:00Z,27.0660,-96.3383,1015.88,11111222 
TABS,ioos:station:TABS:X:1,2017-07-05T22:30:00Z,27.0660,-96.3383,1015.62,11111222 
TABS,ioos:station:TABS:X:1,2017-07-05T23:00:00Z,27.0660,-96.3383,1015.4,11111222 
TABS,ioos:station:TABS:X:1,2017-07-05T23:30:00Z,27.0660,-96.3383,1015.6,11111222 
TABS,ioos:station:TABS:X:1,2017-07-06T00:00:00Z,27.0660,-96.3383,1015.6,11111222 
TABS,ioos:station:TABS:X:1,2017-07-06T00:30:00Z,27.0660,-96.3383,1015.69,11111222 
TABS,ioos:station:TABS:X:1,2017-07-06T01:00:00Z,27.0660,-96.3383,1015.97,11111222 
TABS,ioos:station:TABS:X:1,2017-07-06T01:30:00Z,27.0660,-96.3383,1016.27,11111222 
TABS,ioos:station:TABS:X:1,2017-07-06T02:00:00Z,27.0660,-96.3383,1016.64,11111222 
TABS,ioos:station:TABS:X:1,2017-07-06T02:30:00Z,27.0660,-96.3383,1016.85,11111222 
TABS,ioos:station:TABS:X:1,2017-07-06T03:00:00Z,27.0660,-96.3383,1017.38,11111222 
TABS,ioos:station:TABS:X:1,2017-07-06T03:30:00Z,27.0660,-96.3383,1017.76,11111222 
TABS,ioos:station:TABS:X:1,2017-07-06T04:00:00Z,27.0660,-96.3383,1017.9,11111222 
TABS,ioos:station:TABS:X:1,2017-07-06T04:30:00Z,27.0660,-96.3383,1018.13,11111222 
TABS,ioos:station:TABS:X:1,2017-07-06T05:00:00Z,27.0660,-96.3383,1018.11,11111222 
TABS,ioos:station:TABS:X:1,2017-07-06T05:30:00Z,27.0660,-96.3383,1018.0,11111222 
TABS,ioos:station:TABS:X:1,2017-07-06T06:00:00Z,27.0660,-96.3383,1017.81,11111222 
TABS,ioos:station:TABS:X:1,2017-07-06T06:30:00Z,27.0660,-96.3383,1017.68,11111222 
TABS,ioos:station:TABS:X:1,2017-07-06T07:00:00Z,27.0660,-96.3383,1017.42,11111222 
TABS,ioos:station:TABS:X:1,2017-07-06T07:30:00Z,27.0660,-96.3383,1016.85,11111222 
TABS,ioos:station:TABS:X:1,2017-07-06T08:00:00Z,27.0660,-96.3383,1016.85,11111222 
TABS,ioos:station:TABS:X:1,2017-07-06T08:30:00Z,27.0660,-96.3383,1016.76,11111222 
TABS,ioos:station:TABS:X:1,2017-07-06T09:00:00Z,27.0660,-96.3383,1016.61,11111222 
TABS,ioos:station:TABS:X:1,2017-07-06T09:30:00Z,27.0660,-96.3383,1016.58,11111222 
TABS,ioos:station:TABS:X:1,2017-07-06T10:00:00Z,27.0660,-96.3383,1016.69,11111222 
TABS,ioos:station:TABS:X:1,2017-07-06T10:30:00Z,27.0660,-96.3383,1016.67,11111222 
TABS,ioos:station:TABS:X:1,2017-07-06T11:00:00Z,27.0660,-96.3383,1016.9,11111222 
TABS,ioos:station:TABS:X:1,2017-07-06T11:30:00Z,27.0660,-96.3383,1017.04,11111222 
TABS,ioos:station:TABS:X:1,2017-07-06T12:00:00Z,27.0660,-96.3383,1017.08,11111222 
TABS,ioos:station:TABS:X:1,2017-07-06T12:30:00Z,27.0660,-96.3383,1017.42,11111222 
TABS,ioos:station:TABS:X:1,2017-07-06T13:00:00Z,27.0660,-96.3383,1017.74,11111222 
TABS,ioos:station:TABS:X:1,2017-07-06T13:30:00Z,27.0660,-96.3383,1018.14,11111222 
TABS,ioos:station:TABS:X:1,2017-07-06T14:00:00Z,27.0660,-96.3383,1018.66,11111222 
TABS,ioos:station:TABS:X:1,2017-07-06T14:30:00Z,27.0660,-96.3383,1018.87,11111222 
TABS,ioos:station:TABS:X:1,2017-07-06T15:00:00Z,27.0660,-96.3383,1019.07,11111222 
TABS,ioos:station:TABS:X:1,2017-07-06T15:30:00Z,27.0660,-96.3383,1019.29,11111222 
TABS,ioos:station:TABS:X:1,2017-07-06T16:00:00Z,27.0660,-96.3383,1019.31,11111222 
TABS,ioos:station:TABS:X:1,2017-07-06T16:30:00Z,27.0660,-96.3383,1019.38,11111222 
TABS,ioos:station:TABS:X:1,2017-07-06T17:00:00Z,27.0660,-96.3383,1019.07,11111222 
TABS,ioos:station:TABS:X:1,2017-07-06T17:30:00Z,27.0660,-96.3383,1019.18,11111222 
TABS,ioos:station:TABS:X:1,2017-07-06T18:00:00Z,27.0660,-96.3383,1019.03,11111222 
TABS,ioos:station:TABS:X:1,2017-07-06T18:30:00Z,27.0660,-96.3383,1018.94,11111222 
TABS,ioos:station:TABS:X:1,2017-07-06T19:00:00Z,27.0660,-96.3383,1018.86,11111222 
TABS,ioos:station:TABS:X:1,2017-07-06T19:30:00Z,27.0660,-96.3383,1018.79,11111222 
TABS,ioos:station:TABS:X:1,2017-07-06T20:00:00Z,27.0660,-96.3383,1018.85,11111222 
TABS,ioos:station:TABS:X:1,2017-07-06T20:30:00Z,27.0660,-96.3383,1018.29,11111222 
TABS,ioos:station:TABS:X:1,2017-07-06T21:00:00Z,27.0660,-96.3383,1017.94,11111222 
TABS,ioos:station:TABS:X:1,2017-07-06T21:30:00Z,27.0660,-96.3383,1017.63,11111222 
TABS,ioos:station:TABS:X:1,2017-07-06T22:00:00Z,27.0660,-96.3383,1017.23,11111222 
TABS,ioos:station:TABS:X:1,2017-07-06T22:30:00Z,27.0660,-96.3383,1017.04,11111222 
TABS,ioos:station:TABS:X:1,2017-07-06T23:00:00Z,27.0660,-96.3383,1016.97,11111222 
TABS,ioos:station:TABS:X:1,2017-07-06T23:30:00Z,27.0660,-96.3383,1016.93,11111222 